カタログに戻る

STARLINK-35113

運用中通信VLEO
NORAD 65697·PAYLOAD·🇺🇸 United States

打ち上げ Sep 21, 2025 から Cape Canaveral Space Force Station

Loading…

次のパス (今後24時間)

TLE

最新Source: CelesTrak SupGP

元期: Sep 14, 2026, 14:44 UTC

1 65697C 25212X   26257.61437500  .00058006  00000+0  17145-2 0  2578
2 65697  53.1579 183.5122 0001130  83.7772 286.6090 15.34348076    19

AllMySatでSTARLINK-35113をリアルタイム追跡

Download on the App Store